OneWeb SL0435

operational
NORAD ID: 51632 Int'l Des: 2022-012 Owner: ONEWEBN Country: UK Constellation: oneweb
LEOCIRCULARPOLARONEWEB_TYPE

About OneWeb SL0435

Description loading...

Live Position

Loading 3D Globe...

Upcoming Passes

Altitude History

Altitude vs Time

uPlot chart will show altitude changes over time

Two-Line Element Set

1 51632U 22012L 25260.90476521 .00000516 00000-0 14425-2 0 9993
2 51632 87.8736 90.5833 0001301 81.4522 278.6753 13.10370504173657
Epoch: Sep 17, 2025 • Age: 8 hours

Current Status

Altitude 1234.4 km
Velocity 7.24 km/s
Sub-Earth Point 82.43°N, 173.89°E
Launch Date Feb 10, 2022
Age 3.6 years
Type internet

Technical Details

Classification Payload
Mass 148.00 kg
Dry Mass 140.00 kg
Total Mass 148.00 kg
Length 1.30 m
Diameter 1.00 m
Span 5.00 m
Shape Trapezoid+2 pan
Manufacturer ONEWUS
Bus Type ARROW
Phase Status In Orbit
Owner/State ONEWEBN/UK

Large Constellations

Loading constellations...